sat.trackr.live / text

‹ back to catalog

STARLINK-3079

NORAD 49433 · 2021-104AB

PAYLOAD ACTIVE UNKNOWN

§ Identity

Operator
Country
US
Launch date
2021-11-13
Launch site
AFETR
Launch vehicle
Mass (kg)
RCS (m²)

Purposes: comms

External: N2YO · Heavens-Above · Gunter

§ Orbital elements

Epoch: 2026-05-25T04:57:06.892992Z

Period
95.44 min
Inclination
53.2141°
Eccentricity
0.0001133
Mean motion
15.08836320 rev/d
Perigee alt
539.0 km
Apogee alt
540.5 km
Semi-major
6,917.9 km
B*
4.1902e-5
RAAN
225.6251°
Arg perigee
85.7447°
Mean anomaly
274.3674°
Rev number
25,155

§ Raw data

STARLINK-30791 49433U 21104AB  26145.20632978  .00000379  00000+0  41902-4 0  99942 49433  53.2141 225.6251 0001133  85.7447 274.3674 15.08836320251554

JSON: /api/v1/satellites/49433 · /tle

For live sub-satellite position, see the globe view (requires WebGL).

§ Visibility from observer

Set your observer location to see the next 7 days of passes ≥ 10°. The values pass through the URL so the page stays shareable.

No JS? Fill the form by hand. The geolocation button needs JavaScript.